Regional Weather Roundup
Issued by NWS

Home | Current Version | Previous Version | Graphics & Text | Print | Product List | Glossary On
Versions: 1 2 3 4 5 6 7 8 9 10 11 12 13 14 15 16 17 18 19 20 21 22 23 24 25 26 27 28 29 30 31 32 33 34 35 36 37 38 39 40 41 42 43 44 45 46 47 48 49 50
000
ASUS43 KFSD 230502
RWRSD

WEATHER ROUNDUP FOR SOUTH DAKOTA
NATIONAL WEATHER SERVICE SIOUX FALLS SD
1100 PM CST SUN JAN 22 2017

NOTE: "FAIR" INDICATES FEW OR NO CLOUDS BELOW 12,000 FEET WITH NO
SIGNIFICANT WEATHER AND/OR OBSTRUCTIONS TO VISIBILITY.


SDZ001>005-009-010-012>017-230600-
NORTHWEST AND NORTH CENTRAL SOUTH DAKOTA

CITY           SKY/WX    TMP DP  RH WIND       PRES   REMARKS
BUFFALO          N/A     20  16  84 CALM      29.72F
FAITH            N/A     21  20  96 W3        29.85R
MOBRIDGE       CLOUDY    30  24  78 NW8       29.82S WCI  22
$$

SDZ012>016-024>037-041>051-057-063-072>074-230600-
SOUTHWEST AND SOUTH CENTRAL SOUTH DAKOTA

CITY           SKY/WX    TMP DP  RH WIND       PRES   REMARKS
RAPID CTY ARPT CLEAR     26  21  81 SE5       29.80F WCI  20
PIERRE         CLOUDY    27  23  85 W10       29.88R WCI  17
CUSTER         CLOUDY    28  13  53 W10G20    29.74F WCI  19
ELLSWORTH AFB  CLEAR     27  23  86 SE5       29.79F WCI  21
PHILIP         CLOUDY    12  11  95 CALM      29.86F
PINE RIDGE     CLEAR     17  14  88 CALM      29.82F
SPEARFISH      FAIR      25  18  74 S6        29.76F WCI  18
WINNER         CLOUDY    25  23  92 W5        29.89S WCI  19
$$

SDZ004>011-016>023-039-040-230600-
NORTHEAST SOUTH DAKOTA

CITY           SKY/WX    TMP DP  RH WIND       PRES   REMARKS
ABERDEEN       CLOUDY    32  26  78 NW8       29.85R WCI  25
WATERTOWN      CLOUDY    30  29  96 W7        29.81R WCI  23
BROOKINGS      CLOUDY    30  28  92 NW10      29.82S WCI  21
SISSETON         N/A     34  30  85 NW14      29.81R WCI  25
$$

SDZ017-020-022-023-036>040-048>070-230600-
SOUTHEAST SOUTH DAKOTA

CITY           SKY/WX    TMP DP  RH WIND       PRES   REMARKS
SIOUX FALLS    CLOUDY    31  29  92 NW8       29.86S WCI  23
HURON          CLOUDY    31  28  89 NW8       29.87S WCI  23
CHAMBERLAIN    CLOUDY    31  28  90 W5        29.90R WCI  26
MITCHELL       CLOUDY    32  28  85 NW13      29.90R WCI  22
YANKTON        CLOUDY    32  27  80 W8        29.89S WCI  25
$$

ABBREVIATIONS USED IN REMARKS
   TC - TEMPERATURE IN CELSIUS
  WCI - WIND CHILL INDEX
   HX - HEAT INDEX
  VSB - VISIBILITY




USA.gov is the U.S. government's official web portal to all federal, state and local government web resources and services.